User: anonymous   Login
Location: Unspecified
(0.0000°N, 0.0000°E)
Time: 18:10:25
(UTC+00:00)
Language:

STARLINK-11590 [DTC] - Orbit

View from above orbital plane
View from above orbital plane
View from above satellite
View from above satellite

Ground track
Ground track

The orbit is defined by the following mean orbital elements,

1 63112U          26145.39064286 +.00000000 +00000-0 +14556-2 0 00005
2 63112  43.0003 134.9542 0002659 254.1645 105.8930 15.70862605    08
Epoch (UTC): 25 May 2026 09:22:31
Eccentricity: 0.0002659
inclination: 43.0003°
perigee height: 355 km
apogee height: 358 km
right ascension of ascending node: 134.9542°
argument of perigee: 254.1645°
revolutions per day: 15.70862605
mean anomaly at epoch: 105.8930°

The dashed part of the orbit path shows where the satellite is in the earth's shadow,  

DLR